This demonstration page uses our WeatherBlox Daily Observations layout. Learn more.

38.89511, -77.03637

Hourly Observations for February 27, 2015

Temp ( °F °C ) Dew Point ( °F °C ) Humidity (%) Winds ( mph kmh ) Pressure ( in mb ) Visibility ( mi km ) Precip ( " mm )
12:52 am 00:52 Cloudy 33 0.6 22 -5.6 64 64 Calm 30.18 1022 10 16.0934 0 0
1:52 am 01:52 Cloudy 33 0.6 24 -4.4 70 70 Calm 30.2 1023 10 16.0934 0 0
2:52 am 02:52 Cloudy 32 0 23 -5 69 69 S 3 6 30.2 1023 10 16.0934 0 0
3:52 am 03:52 Cloudy 32 0 24 -4.4 73 73 S 5 7 30.21 1023 10 16.0934 0 0
4:52 am 04:52 Cloudy 32 0 24 -4.4 73 73 Calm 30.25 1024 10 16.0934 0 0
5:27 am 05:27 Cloudy with Light Snow 34 1 21 -6 60 60 NNW 3 6 30.27 1025 10 16.0934 0 0.0254
5:39 am 05:39 Cloudy with Light Snow 34 1 25 -4 70 70 NNW 5 7 30.27 1025 8 12.87472 0 0.0254
5:46 am 05:46 Cloudy with Light Snow 34 1 23 -5 65 65 NNW 3 6 30.27 1025 9 14.48406 0 0
5:52 am 05:52 Cloudy with Light Snow 34 1.1 23 -5 64 64 NW 6 9 30.28 1025 9 14.48406 0 0.0254
6:52 am 06:52 Cloudy 33 0.6 22 -5.6 64 64 N 13 20 30.31 1026 10 16.0934 0 0.0254
7:52 am 07:52 Cloudy 32 0 17 -8.3 54 54 NNW 17 28 30.37 1028 9 14.48406 0 0
8:52 am 08:52 Mostly Cloudy 32 0 13 -10.6 45 45 NNW 12 19 30.4 1030 10 16.0934 0 0
9:52 am 09:52 Mostly Cloudy 32 0 10 -12.2 40 40 NW 15 24 30.42 1030 10 16.0934 0 0
10:52 am 10:52 Mostly Cloudy 34 1.1 12 -11.1 40 40 NW 10 17 30.43 1030 10 16.0934 0 0
11:52 am 11:52 Mostly Cloudy 34 1.1 12 -11.1 40 40 NNW 17 28 30.44 1031 10 16.0934 0 0
12:52 pm 12:52 Mostly Cloudy 34 1.1 12 -11.1 40 40 NW 13 20 30.44 1031 10 16.0934 0 0
1:52 pm 13:52 Partly Cloudy 34 1.1 11 -11.7 38 38 N 12 19 30.45 1031 10 16.0934 0 0
2:52 pm 14:52 Partly Cloudy 34 1.1 11 -11.7 38 38 NNW 17 28 30.47 1032 10 16.0934 0 0
3:52 pm 15:52 Mostly Sunny 34 1.1 11 -11.7 38 38 NNW 15 24 30.5 1033 10 16.0934 0 0
4:52 pm 16:52 Mostly Sunny 34 1.1 9 -12.8 35 35 NNW 13 20 30.5 1033 10 16.0934 0 0
5:52 pm 17:52 Mostly Sunny 32 0 9 -12.8 38 38 NNW 13 20 30.52 1034 10 16.0934 0 0
6:52 pm 18:52 Clear 31 -0.6 10 -12.2 42 42 N 8 13 30.54 1034 10 16.0934 0 0
7:52 pm 19:52 Clear 30 -1.1 10 -12.2 43 43 N 8 13 30.57 1035 10 16.0934 0 0
8:52 pm 20:52 Clear 29 -1.7 10 -12.2 45 45 N 12 19 30.6 1036 10 16.0934 0 0
9:52 pm 21:52 Clear 28 -2.2 4 -15.6 35 35 NNW 17 28 30.63 1037 10 16.0934 0 0
10:52 pm 22:52 Clear 26 -3.3 4 -15.6 38 38 N 12 19 30.66 1038 10 16.0934 0 0
11:52 pm 23:52 Clear 25 -3.9 1 -17.2 35 35 N 10 17 30.68 1039 10 16.0934 0 0

Powered by AerisWeather